Regional & State Weather Roundups


193 
ASUS41 KLWX 020610
RWRLWX
REGIONAL WEATHER ROUNDUP
NATIONAL WEATHER SERVICE BALTIMORE MD/WASHINGTON DC
200 AM EDT SAT AUG 02 2014
Note: "FAIR" indicates few or no clouds below 12,000 feet
with no significant weather and/or obstructions to visibility.
 TC=TEMPERATURE CELSIUS
 * =Non NWS site. Station does not report precipitation (e.g. rain,
    snow, etc.), thunder, or fog.
DCZ001-MDZ009-015-VAZ040>042-051-053>054-020700-
WASHINGTON METRO
  /KDAA//-FT BELVOIR
  
CITY           SKY/WX    TMP DP  RH WIND       PRES   REMARKS
WASHINGTON NAT LGT RAIN  68  60  75 N6        30.15F                  
DULLES         LGT RAIN  64  60  87 CALM      30.16F                  
ANDREWS AFB    LGT RAIN  64  63  94 N5        30.14F                  
QUANTICO       LGT RAIN  65  62  90 NW5       30.15F                  
COLLEGE PARK*  CLOUDY    64  64 100 CALM      30.15F                  
LEESBURG*      DRIZZLE   66  63  88 CALM      30.18F                  
MANASSAS*      CLOUDY    64  64 100 CALM      30.16F                  
GAITHERSBURG*  CLOUDY    63  61  94 CALM      30.20F                  
$$
MDZ006>007-011-014-020700-
BALTIMORE METRO
  
CITY           SKY/WX    TMP DP  RH WIND       PRES   REMARKS
BWI AIRPORT    LGT RAIN  65  64  97 NW3       30.15F FOG              
MD SCIENCE CTR   N/A     67  62  84 MISG      30.17F                  
MARTIN STATE   RAIN      66  66 100 CALM      30.17F                  
ANNAPOLIS      LGT RAIN  68  65  90 N7        30.13F FOG              
FORT MEADE*    CLOUDY    63  61  94 CALM      30.17F                  
$$
MDZ012-015-019>023-020700-
MARYLAND EASTERN SHORE
  
CITY           SKY/WX    TMP DP  RH WIND       PRES   REMARKS
OCEAN CITY     HVY RAIN  68  66  93 N14G20    30.09F FOG              
SALISBURY      RAIN      66  63  88 NE12      30.11F FOG              
BAY BRIDGE AP* LGT RAIN  64  64 100 NE3       30.14F                  
CAMBRIDGE*     CLOUDY    64  61  88 NE5       30.12F                  
EASTON*        RAIN      68  68 100 E6        30.17F                  
$$
MDZ017>025-020700-
SOUTHERN MARYLAND
  
CITY           SKY/WX    TMP DP  RH WIND       PRES   REMARKS
PATUXENT RIVER RAIN      66  64  93 E13       30.12F FOG              
ST INIGOES     HVY RAIN  67  63  87 NE5       30.12S FOG              
LEONARDTOWN*   CLOUDY    64  63  94 E6        30.14F                  
$$
MDZ003>005-020700-
NORTH CENTRAL MARYLAND
  
CITY           SKY/WX    TMP DP  RH WIND       PRES   REMARKS
FREDERICK*     CLOUDY    68  64  88 S3        30.18F                  
HAGERSTOWN APT LGT RAIN  70  64  81 S7        30.16F                  
WESTMINSTER*   DRIZZLE   66  64  94 S3        30.18S                  
$$
MDZ501>502-020700-
WESTERN MARYLAND
  
CITY           SKY/WX    TMP DP  RH WIND       PRES   REMARKS
OAKLAND*       MOCLDY    59  59 100 SE9       30.20F                  
CUMBERLAND*    PTCLDY    66  61  82 CALM      30.19F                  
$$
VAZ025>031-020700-
SHENANDOAH VALLEY
  
CITY           SKY/WX    TMP DP  RH WIND       PRES   REMARKS
WINCHESTER*    MOCLDY    64  59  82 CALM      30.17S                  
STAUNTON*      CLOUDY    64  58  81 CALM      30.20S                  
$$
WVZ021-048>050-054>055-020700-
EASTERN WEST VIRGINIA PANHANDLE
  
CITY           SKY/WX    TMP DP  RH WIND       PRES   REMARKS
MARTINSBURG    CLOUDY    68  60  75 S6        30.17F                  
PETERSBURG*    CLOUDY    61  57  88 CALM      30.17F FOG              
$$
VAZ036>039-050-020700-
CENTRAL FOOTHILLS
  
CITY           SKY/WX    TMP DP  RH WIND       PRES   REMARKS
CHARLOTTESVILL CLOUDY    63  61  93 N3        30.16F                  
ORANGE*        CLOUDY    63  61  94 CALM      30.17S                  
$$
VAZ055>057-020700-
NORTH AND CENTRAL PIEDMONT
  
CITY           SKY/WX    TMP DP  RH WIND       PRES   REMARKS
FREDERICKSBRG* LGT RAIN  65  65 100 CALM      30.13F                  
STAFFORD*      LGT RAIN  64  64 100 NW3       30.18F                  
$$
NCZ024-NYZ072-PAZ021-071-VAZ022-071-020700-
OTHER REGIONAL OBSERVATIONS
  
CITY           SKY/WX    TMP DP  RH WIND       PRES   REMARKS
NEW YORK CITY  CLOUDY    72  63  73 CALM      30.20F                  
PHILADELPHIA   LGT RAIN  71  67  87 CALM      30.17F                  
PITTSBURGH     MOCLDY    69  63  81 SE5       30.11F                  
ROANOKE        CLOUDY    63  61  93 CALM      30.18F                  
RICHMOND       CLOUDY    66  63  90 NW5       30.12S                  
RALEIGH        CLOUDY    65  62  90 NE5       30.11F                  
$$
ANZ530>537-020700-
MARINE OBSERVATIONS
  
STATION/POSITION TIME  TEMP    WIND        PRES
                       AIR SEA DIR/SP/G
                 (UTC) (F)     (DEG/KT/KT) (MB)
THOMAS PT LIGHT  0600   69 77   30/ 11/ 13 1020.8F
BALT KEY BRIDGE  0600           90/  2/  3 1021.1F
COVE POINT       0600   66     130/ 11/ 13 1020.3S
LEWISETTA        0600   69 76   80/ 14/ 16 1019.5F
SOLOMONS ISLAND  0600      79                N/A
PINEY POINT      0600           90/ 10/ 11   N/A
$$